{"data":{"norad_id":39034,"intl_designator":"2012-075A","name":"SKYNET 5D","alt_names":[],"object_type":"PAYLOAD","status":"ACTIVE","operator":null,"country":"UK","launch_date":"2012-12-19","launch_site_code":"FRGUI","launch_vehicle":null,"mission":null,"orbit_class":"UNKNOWN","rcs_meters":5.6742,"size_class":null,"mass_kg":null,"dimensions":null,"purposes":["comms"],"wikipedia_slug":null,"has_3d_model":false,"image_url":null,"decayed_at":null,"tle_current":{"epoch":"2026-09-20T03:29:11.664096Z","epoch_age_seconds":52698,"freshness":"FRESH","line1":"1 39034U 12075A   26263.14527389  .00000095  00000+0  00000+0 0  9994","line2":"2 39034   0.0718 350.1871 0003841 191.8064 282.1133  1.00270486 50112","mean_motion":1.00270486,"eccentricity":0.0003841,"inclination_deg":0.0718,"raan_deg":350.1871,"arg_perigee_deg":191.8064,"mean_anomaly_deg":282.1133,"bstar":0,"rev_number":5011,"period_min":1436.1155086054,"perigee_km":35770.763508557,"apogee_km":35803.154735398,"semimajor_km":42165.096121977,"source":"CELESTRAK","updated_at":"2026-09-20T09:00:35.179644Z"}}}